[Date Prev][Date Next][Thread Prev][Thread Next] - [Date Index][Thread Index][Author Index]

2 Line ISS Keps 1-29



ISS
1 25544U 98067A   02028.97025444 +.00075355 +00000-0 +94833-3 0 00162
2 25544 051.6394 032.8077 0006668 009.1611 029.9811 15.58945909182311


----
Via the sarex mailing list at AMSAT.ORG courtesy of AMSAT-NA.
To unsubscribe, send "unsubscribe sarex" to Majordomo@amsat.org



AMSAT Top AMSAT Home